Home > Time Zones > World Clock > Weather > Belgium > Spa > Past weeks

Flag for Belgium Weather past 2 weeks in Spa, Belgium

Now
51 °F

Sunny.


Feels Like: 50 °F
Forecast: 33 / 57 °F
Wind: 5 mph from East

Location: Spa / La Sauveniere

Current Time: Apr 18, 2015 at 4:21:15 PM

Latest Report: Apr 18, 2015 at 3:00 PM


Visibility: 25 mi

Pressure: 30.30 "Hg

Humidity: 36%

Dew point: 25 °F

Location of SpaLocation

Historic Weather in Spa — Graph

°F

Spa temperature yesterday

Maximum temperature yesterday: 52 °F (at 3:00 PM)
Minimum temperature yesterday: 40 °F (at 7:00 AM)
Average temperature yesterday: 46 °F

Past Weeks' High & Low Weather Summary

 TemperatureHumidityPressure
High72 °F (Apr 15, 3:00 PM)99% (Apr 5, 9:00 AM)30.67 "Hg (Apr 5, 9:00 AM)
Low29 °F (Apr 5, 5:00 AM)25% (Apr 10, 4:00 PM)29.91 "Hg (Apr 16, 6:00 PM)
Average47 °F66%30.27 "Hg
* Reported Apr 3 3:00 PM — Apr 18 3:00 PM, Spa, Weather by CustomWeather, © 2015

Note: Actual official high and low records may vary slightly from our data, if they occured in-between our weather recording intervals... More about our weather records

Advertising

Spa weather history for previous 24 hours

 ConditionsComfort  
Time TempWeatherWind HumidityBarometerVisibility
3:00 PM
Sat, Apr 18
51 °FSunny.5 mph36%30.30 "Hg25 mi
2:00 PM50 °FSunny.6 mph45%30.30 "Hg22 mi
1:00 PM49 °FSunny.6 mph43%30.32 "Hg19 mi
12:00 PM47 °FSunny.7 mph36%30.32 "Hg22 mi
11:00 AM47 °FSunny.7 mph39%30.32 "Hg22 mi
10:00 AM45 °FSunny.7 mph53%30.31 "Hg22 mi
9:00 AM42 °FSunny.2 mph66%30.31 "Hg25 mi
8:00 AM41 °FSunny.3 mph64%30.30 "Hg28 mi
7:00 AM39 °FSunny.3 mph66%30.29 "Hg28 mi
6:00 AM39 °FClear.5 mph65%30.28 "Hg28 mi
4:00 AM37 °FClear.2 mph74%30.29 "Hg25 mi
3:00 AM37 °FClear.1 mph75%30.28 "Hg25 mi
2:00 AM38 °FClear.2 mph72%30.26 "Hg22 mi
1:00 AM37 °FClear.1 mph76%30.25 "Hg25 mi
12:00 AM38 °FClear.1 mph74%30.22 "Hg28 mi
11:00 PM
Fri, Apr 17
40 °FClear.1 mph71%30.20 "Hg28 mi
10:00 PM41 °FClear.1 mph70%30.18 "Hg28 mi
9:00 PM43 °FClear.2 mph65%30.15 "Hg25 mi
8:00 PM46 °FOvercast.2 mph62%30.12 "Hg25 mi
7:00 PM47 °FSunny.6 mph57%30.10 "Hg22 mi
6:00 PM48 °FPassing clouds.6 mph58%30.08 "Hg19 mi
5:00 PM51 °FPartly sunny.5 mph54%30.06 "Hg19 mi
4:00 PM52 °FSunny.7 mph49%30.05 "Hg19 mi
Weather by CustomWeather, © 2015

See weather overviewHow to use our weather pages